CST,Max TemperatureF,Mean TemperatureF,Min TemperatureF,Max Dew PointF,MeanDew PointF,Min DewpointF,Max Humidity, Mean Humidity, Min Humidity, Max Sea Level PressureIn, Mean Sea Level PressureIn, Min Sea Level PressureIn, Max VisibilityMiles, Mean VisibilityMiles, Min VisibilityMiles, Max Wind SpeedMPH, Mean Wind SpeedMPH, Max Gust SpeedMPH,PrecipitationIn, CloudCover, Events, WindDirDegrees
2013-11-1,79,69,59,63,58,51,100,70,39,29.97,29.89,29.84,10,3,0,16,4,20,0.26,2,Fog-Rain,18
2013-11-2,72,63,53,59,48,38,93,62,31,30.22,30.10,29.93,10,10,2,23,11,29,0.00,2,Rain,1
2013-11-3,66,58,49,48,44,41,83,63,42,30.25,30.18,30.12,10,10,10,16,6,20,0.00,0,,80
2013-11-4,77,65,52,63,58,49,89,73,56,30.14,30.08,30.05,10,10,6,22,13,29,0.00,4,,94
2013-11-5,80,74,67,70,66,61,93,80,67,30.09,30.05,30.01,10,10,5,20,14,25,0.01,7,,102
2013-11-6,82,69,56,72,66,50,100,85,69,30.22,30.08,30.01,10,10,2,24,10,30,0.07,6,Rain,53
2013-11-7,68,58,47,48,42,39,86,62,37,30.36,30.30,30.21,10,10,10,23,14,30,0.00,1,,8
2013-11-8,67,57,47,48,41,36,86,60,34,30.36,30.28,30.20,10,10,10,21,8,26,0.00,0,,44
2013-11-9,74,62,50,51,49,45,86,65,44,30.24,30.19,30.15,10,10,10,12,6,14,0.00,1,,46
2013-11-10,76,64,52,57,53,47,86,68,50,30.29,30.23,30.19,10,10,10,9,6,,0.00,1,,23
2013-11-11,76,64,52,55,53,49,89,68,46,30.25,30.20,30.14,10,10,10,8,4,10,0.00,0,,28
2013-11-12,75,59,43,55,48,32,93,70,46,30.55,30.37,30.21,10,10,10,26,14,35,0.00,2,,11
2013-11-13,58,46,34,33,28,23,79,53,27,30.60,30.50,30.42,10,10,8,22,11,28,0.00,0,,20
2013-11-14,63,49,34,43,37,31,89,64,39,30.40,30.25,30.11,10,10,10,17,6,36,0.00,1,,50
2013-11-15,78,66,53,62,57,46,100,80,60,30.07,30.00,29.94,10,7,0,16,5,26,0.00,3,Fog,101
2013-11-16,81,70,58,72,67,59,100,85,69,29.97,29.92,29.85,10,6,0,22,11,26,0.01,7,Fog-Rain,128
2013-11-17,84,79,73,74,73,72,100,87,74,29.94,29.89,29.83,10,6,0,20,9,25,0.04,6,Fog-Rain,179
2013-11-18,82,72,62,73,61,41,100,64,28,30.11,30.02,29.94,10,6,0,21,9,28,T,7,Fog-Rain,33
2013-11-19,69,61,53,42,40,37,66,50,33,30.17,30.09,30.05,10,10,10,22,11,28,0.00,2,,61
2013-11-20,72,62,51,63,53,34,93,70,46,30.08,30.03,29.98,10,10,10,16,10,22,0.00,3,,99
2013-11-21,77,71,65,70,67,62,100,87,74,30.12,30.06,30.01,10,7,0,18,11,26,0.00,7,Fog,112
2013-11-22,75,64,53,70,65,51,100,94,87,30.22,30.15,30.09,10,4,0,18,10,22,0.21,8,Fog-Rain,74
2013-11-23,55,50,45,54,47,37,100,88,76,30.36,30.28,30.21,10,8,2,25,16,31,0.28,7,Rain,2
2013-11-24,54,47,40,36,31,27,76,57,38,30.40,30.34,30.30,10,10,10,22,14,29,T,5,,26
2013-11-25,45,42,39,41,38,30,93,76,58,30.28,30.10,29.97,10,5,1,21,13,28,1.88,8,Rain,11
2013-11-26,43,42,40,40,39,37,93,90,86,30.22,30.07,29.95,10,7,2,24,14,30,0.94,8,Rain,323
2013-11-27,50,42,34,37,32,30,89,68,46,30.43,30.35,30.23,10,10,10,18,9,23,0.00,0,,336
2013-11-28,52,43,33,34,32,29,96,73,50,30.50,30.45,30.39,10,10,9,12,5,14,0.00,0,,81
2013-11-29,60,46,31,37,32,29,96,64,31,30.53,30.47,30.41,10,10,7,12,4,14,0.00,0,,80
2013-11-30,68,53,37,49,44,36,100,73,45,30.41,30.31,30.25,10,6,0,9,3,12,0.00,0,Fog,59